BAW248 SAEZ-SBGL

Flight info

Callsign BAW248
Flight time 2h 18m
Altitude 39000
Route KUKEN1E KUKEN UM654 GAMOT DCT USTUN DCT DOKRO UN857 AKNUB
Aircraft B77W/H-SDE1E2E3FGHIJ2J3J4J5M1RWXY/LB1D1

Departure

Time 2026-04-30 08:37
Airport Ezeiza International Airport - Ministro Pistarini (SAEZ)

Arrival

Time 2026-04-30 10:55
Airport Rio Galeão – Tom Jobim International Airport (SBGL)
Time Latitude Longitude Altitude Speed Heading
2026-04-30 08:29 -34.81436 -58.53714 80 ft 0 kts 312°
2026-04-30 08:30 -34.81445 -58.53702 85 ft 0 kts 312°
2026-04-30 08:30 -34.81454 -58.53689 85 ft 0 kts 312°
2026-04-30 08:30 -34.81464 -58.53676 85 ft 0 kts 304°
2026-04-30 08:30 -34.81465 -58.53660 85 ft 0 kts 246°
2026-04-30 08:31 -34.81459 -58.53652 85 ft 0 kts 222°
2026-04-30 08:32 -34.81471 -58.53662 85 ft 11 kts 210°
2026-04-30 08:32 -34.81596 -58.53739 83 ft 23 kts 217°
2026-04-30 08:32 -34.81650 -58.53789 82 ft 6 kts 212°
2026-04-30 08:32 -34.81744 -58.53730 84 ft 20 kts 147°
2026-04-30 08:33 -34.81862 -58.53660 83 ft 19 kts 170°
2026-04-30 08:33 -34.81921 -58.53555 80 ft 17 kts 101°
2026-04-30 08:33 -34.81947 -58.53415 83 ft 17 kts 103°
2026-04-30 08:33 -34.81975 -58.53277 83 ft 17 kts 104°
2026-04-30 08:34 -34.82003 -58.53138 84 ft 17 kts 103°
2026-04-30 08:34 -34.82048 -58.53013 89 ft 17 kts 133°
2026-04-30 08:34 -34.82067 -58.52874 86 ft 20 kts 94°
2026-04-30 08:34 -34.82090 -58.52688 82 ft 24 kts 102°
2026-04-30 08:35 -34.82132 -58.52474 83 ft 28 kts 105°
2026-04-30 08:35 -34.82182 -58.52236 83 ft 30 kts 103°
2026-04-30 08:35 -34.82231 -58.51997 83 ft 23 kts 104°
2026-04-30 08:35 -34.82278 -58.51818 84 ft 20 kts 132°
2026-04-30 08:36 -34.82408 -58.51811 86 ft 13 kts 192°
2026-04-30 08:36 -34.82490 -58.51859 90 ft 13 kts 227°
2026-04-30 08:36 -34.82507 -58.51981 87 ft 18 kts 278°
2026-04-30 08:36 -34.82413 -58.52502 87 ft 119 kts 282°
2026-04-30 08:37 -34.82165 -58.53923 282 ft 211 kts 282°
2026-04-30 08:37 -34.81835 -58.55764 1718 ft 223 kts 283°
2026-04-30 08:37 -34.81470 -58.57686 2843 ft 238 kts 283°
2026-04-30 08:37 -34.81096 -58.59685 3708 ft 246 kts 280°
2026-04-30 08:38 -34.81208 -58.61741 4502 ft 253 kts 248°
2026-04-30 08:38 -34.82237 -58.63486 5491 ft 258 kts 226°
2026-04-30 08:38 -34.83538 -58.64990 6502 ft 257 kts 231°
2026-04-30 08:38 -34.84284 -58.66951 7315 ft 261 kts 262°
2026-04-30 08:39 -34.84140 -58.69151 8333 ft 264 kts 284°
2026-04-30 08:39 -34.83293 -58.71170 9293 ft 275 kts 304°
2026-04-30 08:39 -34.81806 -58.72708 10149 ft 291 kts 328°
2026-04-30 08:39 -34.79773 -58.73364 10695 ft 322 kts 354°
2026-04-30 08:40 -34.77471 -58.73073 10869 ft 347 kts 360°
2026-04-30 08:40 -34.75034 -58.73360 11025 ft 359 kts 345°
2026-04-30 08:40 -34.72446 -58.73508 11236 ft 390 kts
2026-04-30 08:40 -34.69868 -58.72253 11946 ft 411 kts 32°
2026-04-30 08:41 -34.67692 -58.69937 12783 ft 422 kts 44°
2026-04-30 08:41 -34.65682 -58.67291 13660 ft 430 kts 46°
2026-04-30 08:41 -34.63604 -58.64630 14456 ft 437 kts 43°
2026-04-30 08:41 -34.61389 -58.62062 15286 ft 442 kts 39°
2026-04-30 08:42 -34.59049 -58.59599 16116 ft 447 kts 36°
2026-04-30 08:42 -34.56617 -58.57211 16934 ft 453 kts 34°
2026-04-30 08:42 -34.54147 -58.54881 17706 ft 459 kts 33°
2026-04-30 08:42 -34.51591 -58.52515 18449 ft 465 kts 32°
2026-04-30 08:43 -34.48996 -58.50126 19121 ft 471 kts 32°
2026-04-30 08:43 -34.46372 -58.47705 19794 ft 476 kts 32°
2026-04-30 08:43 -34.43723 -58.45255 20457 ft 482 kts 32°
2026-04-30 08:43 -34.41037 -58.42764 21116 ft 488 kts 32°
2026-04-30 08:44 -34.38321 -58.40244 21750 ft 494 kts 32°
2026-04-30 08:44 -34.35579 -58.37698 22360 ft 500 kts 32°
2026-04-30 08:44 -34.32797 -58.35117 22972 ft 505 kts 32°
2026-04-30 08:44 -34.30023 -58.32546 23563 ft 511 kts 32°
2026-04-30 08:45 -34.27179 -58.29912 24059 ft 515 kts 32°
2026-04-30 08:45 -34.24322 -58.27268 24627 ft 518 kts 32°
2026-04-30 08:45 -34.21451 -58.24611 25210 ft 521 kts 32°
2026-04-30 08:45 -34.18563 -58.21946 25769 ft 524 kts 32°
2026-04-30 08:46 -34.15639 -58.19294 26310 ft 526 kts 31°
2026-04-30 08:46 -34.12708 -58.16709 26839 ft 529 kts 30°
2026-04-30 08:46 -34.09710 -58.14100 27352 ft 532 kts 30°
2026-04-30 08:46 -34.06693 -58.11482 27875 ft 535 kts 30°
2026-04-30 08:47 -34.03658 -58.08844 28357 ft 539 kts 30°
2026-04-30 08:47 -34.00606 -58.06183 28841 ft 542 kts 30°
2026-04-30 08:47 -33.97545 -58.03508 29292 ft 544 kts 30°
2026-04-30 08:47 -33.94471 -58.00819 29808 ft 545 kts 30°
2026-04-30 08:48 -33.91407 -57.98136 30388 ft 543 kts 30°
2026-04-30 08:48 -33.88363 -57.95472 30970 ft 540 kts 30°
2026-04-30 08:48 -33.85330 -57.92823 31525 ft 538 kts 30°
2026-04-30 08:48 -33.82304 -57.90185 32038 ft 536 kts 29°
2026-04-30 08:49 -33.79288 -57.87560 32523 ft 535 kts 29°
2026-04-30 08:49 -33.76276 -57.84942 32990 ft 534 kts 29°
2026-04-30 08:49 -33.73266 -57.82327 33486 ft 532 kts 29°
2026-04-30 08:49 -33.70272 -57.79726 33955 ft 531 kts 29°
2026-04-30 08:50 -33.67316 -57.77161 34353 ft 530 kts 29°
2026-04-30 08:50 -33.64324 -57.74568 34731 ft 529 kts 28°
2026-04-30 08:50 -33.61346 -57.71990 35087 ft 528 kts 28°
2026-04-30 08:50 -33.58364 -57.69412 35447 ft 527 kts 28°
2026-04-30 08:51 -33.55394 -57.66848 35794 ft 526 kts 28°
2026-04-30 08:51 -33.52418 -57.64279 36125 ft 525 kts 28°
2026-04-30 08:51 -33.49455 -57.61724 36476 ft 524 kts 28°
2026-04-30 08:51 -33.46497 -57.59174 36813 ft 523 kts 28°
2026-04-30 08:52 -33.43538 -57.56627 36995 ft 526 kts 28°
2026-04-30 08:52 -33.37567 -57.51495 37023 ft 526 kts 28°
2026-04-30 08:53 -33.31689 -57.46440 37027 ft 520 kts 28°
2026-04-30 08:53 -33.25820 -57.41407 37041 ft 518 kts 28°
2026-04-30 08:54 -33.19943 -57.36381 37038 ft 518 kts 28°
2026-04-30 08:54 -33.14111 -57.31402 37040 ft 518 kts 28°
2026-04-30 08:55 -33.08224 -57.26381 37040 ft 519 kts 28°
2026-04-30 08:55 -33.02338 -57.21369 37041 ft 520 kts 28°
2026-04-30 08:56 -32.96480 -57.16390 37043 ft 521 kts 28°
2026-04-30 08:56 -32.90567 -57.11372 37041 ft 521 kts 28°
2026-04-30 08:57 -32.84654 -57.06361 37045 ft 521 kts 28°
2026-04-30 08:57 -32.79725 -57.02191 37047 ft 521 kts 28°
2026-04-30 08:58 -32.73813 -56.97196 37043 ft 521 kts 28°
2026-04-30 08:58 -32.67915 -56.92222 37042 ft 520 kts 28°
2026-04-30 08:59 -32.62053 -56.87286 37048 ft 519 kts 28°
2026-04-30 08:59 -32.56166 -56.82337 37049 ft 518 kts 28°
2026-04-30 09:00 -32.50280 -56.77397 37053 ft 518 kts 28°
2026-04-30 09:00 -32.44407 -56.72475 37063 ft 517 kts 28°
2026-04-30 09:01 -32.38526 -56.67553 37056 ft 517 kts 28°
2026-04-30 09:01 -32.32655 -56.62645 37061 ft 517 kts 28°
2026-04-30 09:02 -32.23884 -56.55329 37062 ft 517 kts 28°
2026-04-30 09:02 -32.18010 -56.50437 37063 ft 516 kts 28°
2026-04-30 09:03 -32.12128 -56.45549 37062 ft 516 kts 28°
2026-04-30 09:03 -32.06244 -56.40673 37071 ft 516 kts 28°
2026-04-30 09:04 -32.00399 -56.35837 37070 ft 516 kts 28°
2026-04-30 09:04 -31.94529 -56.30985 37082 ft 515 kts 28°
2026-04-30 09:05 -31.88656 -56.26138 37065 ft 515 kts 28°
2026-04-30 09:05 -31.82773 -56.21289 37080 ft 515 kts 28°
2026-04-30 09:06 -31.76895 -56.16453 37073 ft 515 kts 28°
2026-04-30 09:06 -31.71065 -56.11663 37079 ft 514 kts 28°
2026-04-30 09:07 -31.65190 -56.06845 37074 ft 514 kts 28°
2026-04-30 09:07 -31.59312 -56.02030 37081 ft 514 kts 28°
2026-04-30 09:08 -31.53440 -55.97229 37077 ft 514 kts 28°
2026-04-30 09:08 -31.47607 -55.92466 37076 ft 514 kts 28°
2026-04-30 09:09 -31.41729 -55.87670 37083 ft 514 kts 28°
2026-04-30 09:09 -31.35844 -55.82876 37083 ft 514 kts 28°
2026-04-30 09:10 -31.29994 -55.78118 37088 ft 514 kts 28°
2026-04-30 09:10 -31.24110 -55.73340 37088 ft 514 kts 28°
2026-04-30 09:11 -31.18234 -55.68575 37084 ft 514 kts 28°
2026-04-30 09:11 -31.12355 -55.63815 37081 ft 514 kts 28°
2026-04-30 09:12 -31.06516 -55.59093 37077 ft 513 kts 28°
2026-04-30 09:12 -31.00637 -55.54346 37068 ft 513 kts 28°
2026-04-30 09:13 -30.95138 -55.48956 37077 ft 524 kts 42°
2026-04-30 09:13 -30.90844 -55.42061 37069 ft 534 kts 57°
2026-04-30 09:14 -30.87316 -55.34441 37073 ft 535 kts 58°
2026-04-30 09:14 -30.83832 -55.26794 37080 ft 534 kts 58°
2026-04-30 09:15 -30.80294 -55.19187 37087 ft 534 kts 57°
2026-04-30 09:15 -30.76717 -55.11610 37092 ft 534 kts 57°
2026-04-30 09:16 -30.73147 -55.04088 37088 ft 534 kts 57°
2026-04-30 09:16 -30.69553 -54.96522 37105 ft 534 kts 57°
2026-04-30 09:17 -30.65955 -54.88952 37086 ft 534 kts 57°
2026-04-30 09:17 -30.62378 -54.81439 37101 ft 534 kts 57°
2026-04-30 09:18 -30.58771 -54.73879 37093 ft 534 kts 57°
2026-04-30 09:18 -30.55164 -54.66332 37086 ft 534 kts 57°
2026-04-30 09:19 -30.51549 -54.58784 37102 ft 534 kts 57°
2026-04-30 09:19 -30.47955 -54.51297 37099 ft 534 kts 57°
2026-04-30 09:20 -30.44331 -54.43760 37096 ft 535 kts 57°
2026-04-30 09:20 -30.40701 -54.36225 37103 ft 534 kts 57°
2026-04-30 09:21 -30.37075 -54.28713 37087 ft 534 kts 56°
2026-04-30 09:21 -30.33440 -54.21197 37093 ft 534 kts 56°
2026-04-30 09:22 -30.29830 -54.13748 37095 ft 534 kts 56°
2026-04-30 09:22 -30.26189 -54.06248 37096 ft 534 kts 56°
2026-04-30 09:23 -30.22547 -53.98759 37091 ft 534 kts 56°
2026-04-30 09:23 -30.18899 -53.91274 37093 ft 534 kts 56°
2026-04-30 09:24 -30.15247 -53.83797 37089 ft 534 kts 56°
2026-04-30 09:24 -30.11589 -53.76320 37093 ft 534 kts 56°
2026-04-30 09:25 -30.07952 -53.68898 37093 ft 534 kts 56°
2026-04-30 09:25 -30.04285 -53.61431 37090 ft 534 kts 56°
2026-04-30 09:26 -30.00619 -53.53980 37094 ft 534 kts 56°
2026-04-30 09:26 -29.96948 -53.46532 37090 ft 534 kts 56°
2026-04-30 09:27 -29.93273 -53.39090 37089 ft 534 kts 56°
2026-04-30 09:27 -29.89616 -53.31698 37097 ft 534 kts 56°
2026-04-30 09:28 -29.85928 -53.24259 37091 ft 534 kts 56°
2026-04-30 09:28 -29.82237 -53.16826 37097 ft 534 kts 56°
2026-04-30 09:29 -29.78566 -53.09448 37091 ft 534 kts 56°
2026-04-30 09:29 -29.74866 -53.02026 37100 ft 534 kts 56°
2026-04-30 09:30 -29.71168 -52.94620 37095 ft 534 kts 56°
2026-04-30 09:30 -29.67463 -52.87216 37104 ft 534 kts 56°
2026-04-30 09:31 -29.63775 -52.79858 37103 ft 534 kts 56°
2026-04-30 09:31 -29.60055 -52.72450 37113 ft 534 kts 56°
2026-04-30 09:32 -29.56334 -52.65055 37094 ft 534 kts 55°
2026-04-30 09:32 -29.52610 -52.57666 37103 ft 534 kts 55°
2026-04-30 09:33 -29.48878 -52.50273 37108 ft 535 kts 55°
2026-04-30 09:33 -29.45164 -52.42931 37105 ft 535 kts 55°
2026-04-30 09:34 -29.41424 -52.35551 37104 ft 535 kts 55°
2026-04-30 09:34 -29.37682 -52.28182 37100 ft 535 kts 55°
2026-04-30 09:35 -29.33934 -52.20811 37105 ft 534 kts 55°
2026-04-30 09:35 -29.30189 -52.13462 37110 ft 534 kts 55°
2026-04-30 09:36 -29.26444 -52.06126 37116 ft 533 kts 55°
2026-04-30 09:36 -29.22709 -51.98823 37113 ft 534 kts 55°
2026-04-30 09:37 -29.18956 -51.91498 37119 ft 533 kts 55°
2026-04-30 09:37 -29.15196 -51.84172 37129 ft 534 kts 55°
2026-04-30 09:38 -29.11429 -51.76845 37130 ft 534 kts 55°
2026-04-30 09:38 -29.07654 -51.69514 37141 ft 534 kts 54°
2026-04-30 09:39 -29.03869 -51.62180 37141 ft 535 kts 55°
2026-04-30 09:39 -29.00104 -51.54898 37141 ft 536 kts 55°
2026-04-30 09:40 -28.96307 -51.47563 37154 ft 535 kts 54°
2026-04-30 09:40 -28.92504 -51.40235 37160 ft 536 kts 54°
2026-04-30 09:41 -28.88711 -51.32936 37163 ft 536 kts 54°
2026-04-30 09:41 -28.84900 -51.25613 37171 ft 536 kts 54°
2026-04-30 09:42 -28.81079 -51.18285 37172 ft 537 kts 54°
2026-04-30 09:42 -28.77255 -51.10967 37173 ft 537 kts 54°
2026-04-30 09:43 -28.73433 -51.03663 37174 ft 536 kts 54°
2026-04-30 09:43 -28.69619 -50.96389 37171 ft 537 kts 54°
2026-04-30 09:44 -28.65784 -50.89088 37186 ft 537 kts 54°
2026-04-30 09:44 -28.61945 -50.81791 37168 ft 537 kts 54°
2026-04-30 09:45 -28.58124 -50.74541 37179 ft 537 kts 54°
2026-04-30 09:45 -28.54276 -50.67253 37178 ft 537 kts 54°
2026-04-30 09:46 -28.51072 -50.61195 37178 ft 537 kts 54°
2026-04-30 09:46 -28.47216 -50.53912 37169 ft 538 kts 54°
2026-04-30 09:47 -28.42701 -50.45404 37166 ft 538 kts 54°
2026-04-30 09:47 -28.39485 -50.39354 37165 ft 538 kts 54°
2026-04-30 09:48 -28.35607 -50.32071 37152 ft 538 kts 54°
2026-04-30 09:48 -28.31750 -50.24840 37165 ft 538 kts 54°
2026-04-30 09:49 -28.27865 -50.17567 37153 ft 539 kts 53°
2026-04-30 09:49 -28.23962 -50.10275 37160 ft 540 kts 53°
2026-04-30 09:50 -28.20058 -50.02992 37162 ft 541 kts 53°
2026-04-30 09:50 -28.16169 -49.95748 37162 ft 541 kts 53°
2026-04-30 09:51 -28.12246 -49.88456 37155 ft 541 kts 53°
2026-04-30 09:51 -28.08323 -49.81174 37152 ft 541 kts 53°
2026-04-30 09:52 -28.04392 -49.73892 37143 ft 542 kts 53°
2026-04-30 09:52 -28.00483 -49.66661 37147 ft 541 kts 53°
2026-04-30 09:53 -27.96547 -49.59394 37144 ft 541 kts 53°
2026-04-30 09:53 -27.92606 -49.52131 37143 ft 541 kts 53°
2026-04-30 09:54 -27.88691 -49.44926 37128 ft 541 kts 53°
2026-04-30 09:54 -27.84741 -49.37671 37133 ft 541 kts 53°
2026-04-30 09:55 -27.80785 -49.30413 37115 ft 540 kts 53°
2026-04-30 09:55 -27.76841 -49.23188 37125 ft 540 kts 53°
2026-04-30 09:56 -27.72907 -49.16001 37134 ft 541 kts 52°
2026-04-30 09:56 -27.68941 -49.08764 37122 ft 542 kts 53°
2026-04-30 09:57 -27.64972 -49.01530 37119 ft 543 kts 52°
2026-04-30 09:57 -27.60990 -48.94277 37104 ft 544 kts 53°
2026-04-30 09:58 -27.57050 -48.86999 37102 ft 544 kts 53°
2026-04-30 09:58 -27.53145 -48.79750 37092 ft 545 kts 53°
2026-04-30 09:59 -27.45245 -48.65154 37078 ft 545 kts 53°
2026-04-30 10:00 -27.39303 -48.54223 37080 ft 544 kts 53°
2026-04-30 10:01 -27.33379 -48.43355 37071 ft 545 kts 53°
2026-04-30 10:02 -27.27425 -48.32456 37064 ft 545 kts 52°
2026-04-30 10:02 -27.23446 -48.25188 37066 ft 545 kts 52°
2026-04-30 10:03 -27.19466 -48.17930 37061 ft 546 kts 52°
2026-04-30 10:03 -27.15504 -48.10717 37058 ft 546 kts 52°
2026-04-30 10:04 -27.11504 -48.03448 37055 ft 546 kts 52°
2026-04-30 10:04 -27.07501 -47.96182 37057 ft 547 kts 52°
2026-04-30 10:05 -27.03516 -47.88962 37062 ft 547 kts 52°
2026-04-30 10:05 -26.99500 -47.81699 37066 ft 547 kts 52°
2026-04-30 10:06 -26.95481 -47.74443 37063 ft 548 kts 52°
2026-04-30 10:06 -26.91457 -47.67187 37059 ft 548 kts 52°
2026-04-30 10:07 -26.87429 -47.59938 37056 ft 548 kts 51°
2026-04-30 10:07 -26.83425 -47.52741 37061 ft 547 kts 51°
2026-04-30 10:08 -26.79387 -47.45498 37058 ft 547 kts 51°
2026-04-30 10:08 -26.75355 -47.38277 37060 ft 547 kts 51°
2026-04-30 10:09 -26.71316 -47.31053 37055 ft 547 kts 51°
2026-04-30 10:09 -26.67274 -47.23836 37051 ft 547 kts 51°
2026-04-30 10:10 -26.63234 -47.16636 37049 ft 547 kts 51°
2026-04-30 10:10 -26.59193 -47.09443 37050 ft 546 kts 51°
2026-04-30 10:11 -26.55169 -47.02293 37046 ft 546 kts 51°
2026-04-30 10:11 -26.51121 -46.95111 37051 ft 546 kts 51°
2026-04-30 10:12 -26.47067 -46.87930 37049 ft 546 kts 51°
2026-04-30 10:12 -26.43043 -46.80810 37050 ft 545 kts 51°
2026-04-30 10:13 -26.38833 -46.73791 37048 ft 539 kts 44°
2026-04-30 10:13 -26.33865 -46.67660 37071 ft 530 kts 37°
2026-04-30 10:14 -26.28710 -46.61770 37044 ft 530 kts 37°
2026-04-30 10:14 -26.21058 -46.52925 37049 ft 531 kts 38°
2026-04-30 10:15 -26.15951 -46.46972 37048 ft 531 kts 38°
2026-04-30 10:15 -26.10842 -46.41023 37046 ft 531 kts 38°
2026-04-30 10:16 -26.05727 -46.35081 37045 ft 530 kts 38°
2026-04-30 10:17 -25.98098 -46.26238 37048 ft 530 kts 38°
2026-04-30 10:17 -25.90436 -46.17374 37050 ft 529 kts 38°
2026-04-30 10:18 -25.85333 -46.11479 37048 ft 528 kts 38°
2026-04-30 10:19 -25.77697 -46.02674 37051 ft 527 kts 38°
2026-04-30 10:19 -25.72606 -45.96812 37043 ft 527 kts 38°
2026-04-30 10:20 -25.67546 -45.90992 37050 ft 526 kts 38°
2026-04-30 10:20 -25.59921 -45.82247 37046 ft 525 kts 38°
2026-04-30 10:21 -25.54839 -45.76429 37048 ft 525 kts 38°
2026-04-30 10:21 -25.49792 -45.70656 37045 ft 524 kts 38°
2026-04-30 10:22 -25.44706 -45.64845 37059 ft 524 kts 38°
2026-04-30 10:22 -25.39633 -45.59056 37037 ft 524 kts 38°
2026-04-30 10:23 -25.34550 -45.53264 37053 ft 523 kts 38°
2026-04-30 10:23 -25.29506 -45.47522 37046 ft 523 kts 38°
2026-04-30 10:24 -25.24427 -45.41749 37051 ft 523 kts 39°
2026-04-30 10:24 -25.19351 -45.35987 37051 ft 523 kts 39°
2026-04-30 10:25 -25.14271 -45.30227 37050 ft 522 kts 39°
2026-04-30 10:25 -25.09195 -45.24480 37047 ft 522 kts 39°
2026-04-30 10:26 -25.04154 -45.18778 37052 ft 523 kts 39°
2026-04-30 10:26 -24.99069 -45.13035 37051 ft 523 kts 39°
2026-04-30 10:27 -24.93977 -45.07291 37053 ft 523 kts 39°
2026-04-30 10:27 -24.88889 -45.01557 37054 ft 523 kts 39°
2026-04-30 10:28 -24.83830 -44.95864 37057 ft 523 kts 39°
2026-04-30 10:28 -24.78723 -44.90125 37055 ft 522 kts 39°
2026-04-30 10:29 -24.73663 -44.84444 37057 ft 521 kts 39°
2026-04-30 10:29 -24.68589 -44.78755 37055 ft 520 kts 39°
2026-04-30 10:30 -24.63515 -44.73073 37054 ft 519 kts 39°
2026-04-30 10:30 -24.58452 -44.67409 37053 ft 518 kts 39°
2026-04-30 10:31 -24.53414 -44.61795 37054 ft 516 kts 37°
2026-04-30 10:31 -24.47756 -44.57173 37056 ft 500 kts 22°
2026-04-30 10:32 -24.41486 -44.54123 37061 ft 488 kts 12°
2026-04-30 10:32 -24.35049 -44.51736 37052 ft 489 kts 11°
2026-04-30 10:33 -24.28632 -44.49355 37053 ft 490 kts 12°
2026-04-30 10:33 -24.22163 -44.46910 37052 ft 492 kts 12°
2026-04-30 10:34 -24.15687 -44.44441 37052 ft 493 kts 12°
2026-04-30 10:34 -24.09195 -44.41965 37054 ft 494 kts 12°
2026-04-30 10:35 -24.05932 -44.40723 36671 ft 500 kts 12°
2026-04-30 10:35 -24.02616 -44.39468 35925 ft 505 kts 13°
2026-04-30 10:35 -24.00416 -44.38632 35421 ft 505 kts 13°
2026-04-30 10:35 -23.96009 -44.36957 34289 ft 507 kts 13°
2026-04-30 10:36 -23.92666 -44.35687 33312 ft 509 kts 13°
2026-04-30 10:36 -23.89318 -44.34415 32356 ft 509 kts 13°
2026-04-30 10:36 -23.87100 -44.33573 31733 ft 510 kts 13°
2026-04-30 10:36 -23.83752 -44.32303 30921 ft 507 kts 13°
2026-04-30 10:37 -23.80429 -44.31040 30271 ft 501 kts 13°
2026-04-30 10:37 -23.77150 -44.29796 29521 ft 497 kts 13°
2026-04-30 10:37 -23.73901 -44.28564 28850 ft 491 kts 13°
2026-04-30 10:37 -23.69645 -44.26954 27996 ft 485 kts 13°
2026-04-30 10:38 -23.67491 -44.26140 27572 ft 482 kts 13°
2026-04-30 10:38 -23.64335 -44.24948 26947 ft 478 kts 14°
2026-04-30 10:38 -23.61241 -44.23781 26332 ft 474 kts 14°
2026-04-30 10:38 -23.58122 -44.22605 25725 ft 471 kts 14°
2026-04-30 10:39 -23.55033 -44.21440 25104 ft 468 kts 14°
2026-04-30 10:39 -23.51959 -44.20282 24490 ft 466 kts 14°
2026-04-30 10:39 -23.48896 -44.19128 23877 ft 464 kts 14°
2026-04-30 10:39 -23.45849 -44.17981 23191 ft 462 kts 14°
2026-04-30 10:40 -23.42853 -44.16854 22542 ft 458 kts 14°
2026-04-30 10:40 -23.39847 -44.15722 21918 ft 455 kts 14°
2026-04-30 10:40 -23.36858 -44.14598 21312 ft 451 kts 14°
2026-04-30 10:40 -23.33920 -44.13492 20702 ft 436 kts 15°
2026-04-30 10:41 -23.31134 -44.12438 20140 ft 416 kts 15°
2026-04-30 10:41 -23.28401 -44.11411 19603 ft 415 kts 15°
2026-04-30 10:41 -23.25698 -44.10400 19055 ft 416 kts 15°
2026-04-30 10:41 -23.22957 -44.09376 18489 ft 417 kts 15°
2026-04-30 10:42 -23.20212 -44.08349 17866 ft 417 kts 15°
2026-04-30 10:42 -23.17469 -44.07322 17263 ft 417 kts 16°
2026-04-30 10:42 -23.14732 -44.06296 16687 ft 415 kts 16°
2026-04-30 10:42 -23.11997 -44.05271 16114 ft 414 kts 17°
2026-04-30 10:43 -23.09321 -44.04267 15534 ft 396 kts 17°
2026-04-30 10:43 -23.06754 -44.03304 15014 ft 389 kts 17°
2026-04-30 10:43 -23.04188 -44.02345 14490 ft 391 kts 17°
2026-04-30 10:43 -23.01604 -44.01380 13948 ft 393 kts 18°
2026-04-30 10:44 -22.99010 -44.00411 13338 ft 395 kts 18°
2026-04-30 10:44 -22.96411 -43.99437 12769 ft 393 kts 19°
2026-04-30 10:44 -22.93993 -43.98115 12207 ft 391 kts 36°
2026-04-30 10:44 -22.92115 -43.96132 11833 ft 368 kts 52°
2026-04-30 10:45 -22.90861 -43.93847 11554 ft 338 kts 64°
2026-04-30 10:45 -22.89904 -43.91626 11295 ft 314 kts 64°
2026-04-30 10:45 -22.88980 -43.89500 11091 ft 308 kts 64°
2026-04-30 10:45 -22.88068 -43.87418 10866 ft 303 kts 64°
2026-04-30 10:46 -22.87163 -43.85365 10629 ft 298 kts 64°
2026-04-30 10:46 -22.86270 -43.83352 10410 ft 294 kts 64°
2026-04-30 10:46 -22.85401 -43.81397 10183 ft 289 kts 64°
2026-04-30 10:46 -22.84529 -43.79441 9961 ft 286 kts 64°
2026-04-30 10:47 -22.83667 -43.77508 9729 ft 283 kts 64°
2026-04-30 10:47 -22.82809 -43.75589 9491 ft 281 kts 64°
2026-04-30 10:47 -22.81959 -43.73689 9272 ft 279 kts 64°
2026-04-30 10:47 -22.81131 -43.71824 9049 ft 276 kts 66°
2026-04-30 10:48 -22.80542 -43.69833 8728 ft 278 kts 76°
2026-04-30 10:48 -22.80107 -43.67783 8406 ft 280 kts 77°
2026-04-30 10:48 -22.79661 -43.65712 8075 ft 283 kts 76°
2026-04-30 10:48 -22.79194 -43.63633 7751 ft 285 kts 76°
2026-04-30 10:49 -22.78716 -43.61542 7384 ft 287 kts 75°
2026-04-30 10:49 -22.78230 -43.59438 7022 ft 288 kts 75°
2026-04-30 10:49 -22.77745 -43.57363 6649 ft 277 kts 75°
2026-04-30 10:49 -22.77285 -43.55423 6274 ft 264 kts 72°
2026-04-30 10:50 -22.76628 -43.53582 5927 ft 265 kts 65°
2026-04-30 10:50 -22.75849 -43.51721 5559 ft 275 kts 64°
2026-04-30 10:50 -22.75051 -43.49817 5159 ft 279 kts 64°
2026-04-30 10:50 -22.74260 -43.47882 4855 ft 279 kts 64°
2026-04-30 10:51 -22.73492 -43.45972 4592 ft 269 kts 64°
2026-04-30 10:51 -22.72774 -43.44178 4417 ft 249 kts 64°
2026-04-30 10:51 -22.72110 -43.42506 4104 ft 236 kts 67°
2026-04-30 10:51 -22.71891 -43.40809 3598 ft 231 kts 103°
2026-04-30 10:52 -22.72627 -43.39309 3177 ft 223 kts 126°
2026-04-30 10:52 -22.73538 -43.37984 2741 ft 216 kts 125°
2026-04-30 10:52 -22.74403 -43.36697 2407 ft 205 kts 126°
2026-04-30 10:52 -22.75217 -43.35493 2109 ft 193 kts 125°
2026-04-30 10:53 -22.75973 -43.34353 1827 ft 178 kts 125°
2026-04-30 10:53 -22.76673 -43.33292 1586 ft 173 kts 125°
2026-04-30 10:53 -22.77363 -43.32245 1348 ft 167 kts 125°
2026-04-30 10:53 -22.77642 -43.31823 1246 ft 160 kts 125°
2026-04-30 10:54 -22.78188 -43.30996 1058 ft 149 kts 126°
2026-04-30 10:54 -22.78802 -43.30065 910 ft 158 kts 126°
2026-04-30 10:54 -22.79445 -43.29091 695 ft 157 kts 126°
2026-04-30 10:54 -22.80071 -43.28143 483 ft 155 kts 126°
2026-04-30 10:55 -22.80702 -43.27185 266 ft 156 kts 125°
2026-04-30 10:55 -22.81337 -43.26224 66 ft 158 kts 125°
2026-04-30 10:55 -22.81928 -43.25333 30 ft 105 kts 127°
2026-04-30 10:55 -22.82197 -43.24931 27 ft 39 kts 124°
2026-04-30 10:56 -22.82327 -43.24694 27 ft 30 kts 112°
2026-04-30 10:56 -22.82360 -43.24493 24 ft 25 kts 82°
2026-04-30 10:56 -22.82253 -43.24358 28 ft 22 kts 36°
2026-04-30 10:56 -22.82145 -43.24311 27 ft 16 kts 346°
2026-04-30 10:57 -22.82066 -43.24395 29 ft 16 kts 306°
2026-04-30 10:57 -22.82001 -43.24494 29 ft 16 kts 305°
2026-04-30 10:57 -22.81931 -43.24583 31 ft 15 kts 330°
2026-04-30 10:57 -22.81831 -43.24568 26 ft 15 kts 18°
2026-04-30 10:58 -22.81726 -43.24567 26 ft 15 kts
2026-04-30 10:58 -22.81645 -43.24569 26 ft 3 kts 357°
2026-04-30 10:58 -22.81635 -43.24570 26 ft 0 kts 357°